SCP
0 0 0 0 0 0 0 0 0 0 0 0 0 0 0 0 0 0 0 0 0 0 0 0 0 0 0 1 1 1 1 1 1 1 0 0 0 0 0 0 0 0 0 0
0 0 0 0 0 0 0 0 0 0 0 0 0 0 0 0 0 0 0 0 0 1 0 0 0 0 0 1 1 1 1 1 1 1 1 0 0 0 0 0 0 0 0 0
0 0 0 0 0 0 0 0 0 0 0 0 0 0 0 0 0 0 0 0 0 1 0 0 0 0 0 1 1 1 1 1 1 1 1 0 0 0 0 0 0 0 0 0
0 0 0 0 0 0 0 0 0 0 0 0 0 0 0 0 0 0 0 0 0 1 1 0 0 0 0 1 1 1 1 1 1 1 1 0 0 0 0 0 0 0 0 0
0 0 0 0 0 0 0 0 0 0 0 0 0 0 0 0 0 0 0 0 0 1 1 0 0 1 0 1 1 1 1 1 1 1 1 1 0 0 0 0 0 0 0 0
0 0 0 0 0 0 0 0 0 0 0 0 0 0 0 0 0 0 0 0 0 1 1 1 1 1 1 1 1 1 1 1 1 1 1 1 1 1 1 1 0 0 0 0
0 0 0 0 0 0 0 0 0 0 0 0 0 0 0 0 0 0 0 0 1 1 1 1 1 1 1 1 1 1 1 1 1 1 1 1 1 1 1 1 0 0 0 0
0 0 0 0 0 0 0 0 0 0 0 0 0 0 0 0 0 0 0 0 1 1 1 1 1 1 1 1 1 1 1 1 1 1 1 1 1 1 0 0 0 0 0 0
0 0 0 0 0 0 0 0 0 0 0 0 0 0 0 0 0 0 0 0 1 1 1 1 1 1 1 1 1 1 1 1 1 1 1 1 0 0 0 0 0 0 0 0
0 0 0 0 0 0 0 0 0 0 0 0 0 0 0 0 0 0 0 0 1 1 1 1 1 1 1 1 1 1 1 1 1 1 1 1 0 0 0 0 0 0 0 0
0 0 0 0 0 0 0 0 0 0 0 0 0 0 0 0 0 0 0 0 1 1 1 1 1 1 1 1 1 1 1 1 1 1 1 1 1 0 0 0 0 0 0 0
0 0 0 0 0 0 0 0 0 0 0 0 0 0 0 0 0 0 0 0 1 1 1 1 1 1 1 1 1 1 1 1 1 1 1 1 1 1 0 0 0 0 0 0
0 0 0 0 0 0 0 0 0 0 0 0 0 0 0 0 0 0 0 1 1 1 1 1 1 1 1 2 2 2 1 1 1 1 1 1 1 1 1 1 1 1 1 1
0 0 0 0 0 0 0 0 0 0 0 0 0 0 0 0 0 0 0 1 1 1 1 1 1 2 2 2 2 2 1 1 1 1 1 1 1 1 1 1 1 1 1 1
0 0 0 0 0 0 0 0 0 0 0 0 0 0 0 0 0 0 0 1 1 1 1 1 2 2 2 2 2 2 2 1 1 1 1 1 1 1 1 1 1 1 1 1
0 0 0 0 0 0 0 0 0 0 0 0 0 0 0 0 0 0 1 1 1 1 1 2 2 1 2 2 2 2 2 1 1 1 1 1 1 1 1 1 1 1 1 1
0 0 0 0 0 0 0 0 0 0 0 0 0 0 0 0 0 1 1 1 1 1 2 2 2 1 1 2 2 2 1 1 1 1 1 1 1 1 1 1 1 1 1 1
0 0 0 0 0 0 0 0 0 0 0 0 0 0 0 0 1 1 1 1 1 2 2 2 2 1 1 1 1 1 1 1 1 1 1 1 1 1 1 1 1 1 1 1
0 0 0 0 0 0 0 0 0 0 0 0 0 0 0 0 1 1 1 1 2 2 2 2 2 1 1 1 1 1 1 1 1 1 1 1 1 1 1 1 1 1 1 1
0 0 0 0 0 0 0 0 0 0 0 0 0 1 1 1 1 1 1 2 2 2 2 1 1 1 1 1 1 1 1 1 1 1 1 1 1 1 1 1 1 1 1 1
0 0 0 0 0 0 0 0 0 0 0 1 1 1 1 1 1 1 1 2 2 1 1 1 1 1 2 2 2 2 2 1 1 1 1 1 1 1 1 1 2 1 1 1
0 0 0 0 0 0 0 0 0 1 1 1 1 1 1 1 1 1 2 2 1 1 1 1 1 2 2 2 2 2 2 2 2 2 2 1 1 1 1 1 2 1 1 1
0 0 0 0 0 0 0 0 0 1 1 1 1 1 1 1 1 1 1 1 1 1 1 1 1 2 2 2 2 2 2 2 2 2 2 2 1 1 1 1 1 1 1 1
0 0 0 0 0 0 0 0 0 0 0 0 0 0 1 1 1 1 1 1 1 1 1 1 1 1 1 2 2 2 2 2 2 2 2 1 1 1 1 1 1 1 1 0
0 0 0 1 0 0 0 0 0 0 0 0 0 0 1 1 1 1 1 1 1 1 1 1 1 1 1 1 2 2 2 2 2 1 1 1 1 1 1 1 0 0 0 0
0 0 0 1 1 0 0 0 0 0 0 0 0 0 1 1 1 1 1 1 1 1 1 1 1 1 1 1 2 2 2 2 1 1 1 1 1 1 1 0 0 0 0 0
Wind_Speed
12 10 7 8 9 9 9 5 4 2 2 1 2 4 4 4 5 6 8 9 10 10 10 10 9 9 9 8 7 5 4 4 2 2 1 2 2 2 2 3 4 4 4 4
11 11 9 11 11 10 7 7 5 2 1 2 1 3 5 6 7 6 7 9 10 10 11 10 9 9 9 8 7 5 4 4 3 2 1 1 2 2 3 3 4 4 4 3
13 9 11 12 12 9 6 7 6 3 2 4 1 3 5 6 6 6 6 9 11 11 11 11 9 8 9 8 7 5 5 4 3 2 1 2 2 2 3 3 3 3 3 3
13 11 11 10 9 7 6 7 7 6 4 4 3 3 4 5 4 6 6 7 10 12 12 12 11 9 8 8 8 7 6 4 3 2 2 2 3 2 2 2 2 2 3 3
11 11 11 9 8 8 8 8 7 6 4 5 3 2 3 4 5 6 6 6 8 10 11 11 12 10 9 9 9 8 6 4 3 2 2 2 2 2 2 2 3 2 3 3
14 12 11 10 10 9 8 9 8 6 4 6 6 5 3 3 4 6 7 7 8 9 10 10 11 10 9 9 9 9 7 5 3 3 3 2 3 2 3 3 2 2 2 3
14 14 11 9 10 8 9 7 5 4 4 4 4 2 2 3 5 7 8 9 10 9 10 10 10 10 8 8 9 9 8 5 4 3 3 2 2 2 2 2 2 2 1 2
11 10 10 8 8 8 9 9 7 5 5 3 3 0 3 3 2 5 8 10 11 10 10 10 10 10 9 9 9 9 8 6 5 4 3 2 2 1 1 1 1 2 1 2
8 8 10 10 9 10 9 8 9 8 7 4 1 1 2 3 3 4 4 8 9 9 10 11 11 11 10 10 9 9 8 6 5 4 4 3 2 1 2 2 2 2 2 2
10 9 9 8 9 12 10 9 6 6 5 6 2 1 1 4 5 5 4 5 5 6 8 10 10 11 10 10 9 9 8 6 5 4 3 3 2 2 2 2 2 2 2 3
12 10 9 8 9 8 8 10 8 7 6 6 3 0 4 3 4 5 7 6 5 6 5 7 9 8 10 10 10 9 8 7 5 5 4 3 3 2 2 2 2 2 2 2
9 9 9 9 6 7 8 9 9 7 7 8 4 1 2 2 3 5 5 6 7 7 7 7 8 8 8 9 9 8 8 7 6 5 5 4 3 3 3 2 2 1 1 1
5 8 9 9 7 6 9 10 11 10 7 7 5 1 1 2 2 4 6 6 6 7 7 6 7 7 7 7 7 7 7 6 6 6 5 4 3 3 3 2 2 1 1 1
6 9 11 12 7 6 10 12 12 10 8 7 3 3 3 1 2 6 7 6 5 6 6 6 6 6 6 7 6 6 5 5 5 6 5 5 4 3 2 2 2 1 1 1
8 10 12 14 12 9 11 13 12 10 9 9 4 2 3 3 3 6 6 6 5 5 5 6 6 6 5 6 6 6 5 4 4 4 4 4 3 3 3 2 1 1 1 1
8 9 12 14 14 12 14 12 10 9 7 6 4 1 3 4 4 4 5 5 5 5 4 5 6 6 5 5 5 5 4 4 4 4 3 3 3 2 2 2 2 1 1 0
8 8 10 12 12 13 13 8 8 7 6 5 4 1 3 3 4 5 5 5 5 4 4 5 5 5 5 6 5 5 4 4 4 3 3 3 2 2 2 1 1 1 1 1
8 8 8 11 11 13 7 6 5 5 5 4 1 2 2 3 6 6 6 5 4 4 4 4 4 4 5 5 5 5 5 4 4 3 2 2 2 2 1 1 1 0 1 0
8 7 8 9 11 10 6 4 4 4 3 3 2 1 3 4 4 6 6 6 4 4 5 4 3 3 4 5 5 5 4 4 4 3 2 1 1 1 1 1 1 1 1 1
10 8 9 9 11 10 4 3 3 4 2 4 4 4 3 2 1 4 5 6 6 7 5 4 3 4 4 4 5 4 4 4 3 2 2 1 1 1 1 1 1 0 0 1
10 9 10 11 11 5 4 5 4 4 1 3 4 5 4 5 5 5 6 6 5 6 6 4 3 4 5 4 4 3 3 3 3 2 2 1 1 1 1 1 1 1 1 1
8 8 9 9 11 4 5 3 3 4 5 5 5 5 5 5 6 7 6 5 5 5 5 4 3 4 4 4 4 3 3 2 2 2 2 1 1 0 1 1 1 1 1 1
5 4 3 1 1 3 5 6 4 4 5 4 4 5 4 4 5 6 5 5 5 5 5 4 3 4 4 4 3 3 3 2 2 1 1 1 1 1 1 1 1 1 1 1
3 2 1 1 2 4 5 5 4 5 5 5 4 3 3 4 4 4 5 5 4 4 4 4 4 4 4 3 3 3 2 2 1 1 1 1 1 1 1 0 0 0 0 1
5 3 1 2 1 2 3 4 4 5 4 4 4 4 4 3 4 4 4 4 4 4 4 4 2 3 3 3 2 2 2 2 1 0 1 1 1 1 2 1 1 1 2 1
5 5 3 1 2 1 2 3 3 3 2 2 3 3 4 4 4 4 3 4 3 4 4 3 2 2 3 3 3 3 2 2 1 0 1 1 1 1 1 2 2 4 1 2
Wind_Direction
238 239 243 253 254 254 262 281 291 237 212 240 148 148 189 202 187 173 161 154 152 148 143 141 143 140 133 125 118 116 113 105 101 83 83 81 79 85 86 91 81 69 60 55
243 246 251 256 260 266 286 288 281 256 189 240 165 166 198 202 195 179 165 157 152 145 143 145 151 146 136 130 131 134 123 111 99 95 101 116 107 98 93 76 84 72 67 61
246 241 237 247 259 262 271 278 286 280 248 260 192 248 217 210 180 169 167 159 157 157 153 152 150 147 144 141 139 127 110 107 103 98 95 87 97 76 81 83 79 67 67 68
251 249 244 246 255 271 270 275 275 276 273 270 240 245 230 198 180 167 179 168 161 157 154 154 153 151 146 143 136 122 114 104 97 95 94 108 101 92 84 87 93 90 84 82
254 250 252 258 266 269 271 282 287 290 297 288 254 241 236 199 182 177 176 171 155 151 150 152 151 149 149 148 137 129 119 113 107 104 88 89 91 94 88 91 91 90 89 83
261 254 253 252 257 252 265 272 270 271 271 260 258 233 218 189 176 174 169 162 150 141 143 144 142 143 146 143 137 131 124 121 118 110 99 95 89 91 110 114 118 108 99 91
249 246 241 246 253 247 250 262 268 264 253 246 240 238 174 166 156 159 158 152 146 142 142 143 140 147 144 141 136 130 130 133 133 126 114 115 124 121 115 121 119 104 92 88
245 236 228 232 246 254 258 259 261 274 273 278 264 207 120 103 110 136 144 145 143 146 147 144 142 143 145 142 136 136 138 141 142 137 127 127 138 113 99 91 88 88 70 83
260 253 232 219 231 245 258 265 270 275 274 273 229 151 111 97 100 93 120 139 143 148 148 147 148 150 149 144 141 141 139 143 146 140 136 126 115 92 94 90 68 69 72 89
255 270 254 229 228 231 245 266 277 279 287 284 239 188 205 184 160 148 141 114 117 127 143 145 147 150 151 148 141 137 137 140 139 140 146 136 125 101 91 85 84 65 51 54
258 268 263 242 234 242 245 258 266 280 281 286 288 147 186 200 157 137 123 125 133 138 145 139 137 141 146 146 144 142 141 143 147 148 137 119 126 123 120 99 86 84 64 51
251 267 270 256 237 251 255 261 264 269 274 282 281 149 84 80 82 103 104 129 134 137 141 134 134 139 142 146 145 144 147 152 153 143 133 131 138 140 129 121 114 112 111 86
266 263 264 259 235 239 255 253 258 265 270 272 285 147 160 97 70 98 103 110 121 128 122 119 124 128 133 129 127 138 148 154 150 142 139 142 149 144 139 136 139 139 133 121
272 255 260 267 259 238 249 251 249 256 264 272 259 159 181 118 131 100 95 105 112 112 118 116 110 108 110 115 121 130 140 150 148 143 146 148 154 150 148 151 154 144 143 134
254 260 267 274 272 259 258 253 250 251 267 278 270 184 150 118 92 105 116 123 115 110 114 112 114 113 115 117 123 128 132 130 131 140 146 144 147 151 152 156 154 148 153 151
243 266 271 271 269 262 258 256 256 254 254 255 258 202 83 68 79 95 103 115 113 116 116 112 108 116 131 134 132 131 133 133 130 131 133 134 142 142 148 159 163 154 158 125
237 251 268 270 266 266 259 262 267 271 262 256 252 177 116 86 73 85 93 99 109 107 94 108 122 137 147 138 132 138 140 137 132 129 135 146 152 162 169 184 149 164 182 180
244 246 255 265 268 258 262 276 262 269 280 299 312 97 108 100 98 88 78 78 94 110 105 100 112 121 134 143 148 146 147 138 130 131 139 144 159 163 161 146 131 138 126 135
243 248 255 258 260 255 251 267 282 275 299 345 350 123 124 110 108 84 74 71 76 75 95 99 110 116 129 142 141 143 142 136 132 134 135 145 146 146 166 166 167 170 144 111
238 235 247 252 261 266 262 302 312 267 215 23 21 35 48 106 147 83 73 73 66 60 57 68 77 102 112 115 128 134 134 129 131 128 115 112 134 156 171 174 158 115 152 144
230 231 238 249 256 260 316 320 293 261 81 44 53 49 41 48 56 79 73 70 67 74 69 65 71 78 83 84 93 114 123 126 124 116 113 105 100 142 154 136 129 157 175 139
233 236 234 243 251 248 5 357 13 55 55 51 56 55 48 62 76 81 76 72 69 70 77 71 68 79 81 84 87 89 85 90 104 115 122 132 128 219 135 129 142 153 164 183
242 262 257 252 230 80 57 66 61 69 67 53 55 69 66 78 84 87 90 87 73 69 72 68 77 90 86 84 88 84 71 78 92 107 125 154 153 124 103 155 164 167 187 220
275 271 226 162 131 97 84 85 77 71 61 58 64 72 78 80 84 86 90 89 81 69 62 64 88 91 83 75 77 78 81 84 116 136 141 156 142 137 119 100 162 224 259 281
318 300 225 195 155 131 87 64 59 68 61 54 61 59 62 77 89 81 90 93 83 80 71 62 70 95 97 86 80 77 78 87 85 151 181 178 148 133 115 90 41 23 28 54
318 319 313 31 60 28 83 67 72 80 77 58 51 54 55 75 83 86 91 93 93 87 81 80 64 82 103 99 85 71 67 76 74 332 245 210 143 134 154 133 82 51 76 99